{"data":{"norad_id":68943,"intl_designator":"2026-098AA","name":"KUIPER-00442","alt_names":[],"object_type":"PAYLOAD","status":"ACTIVE","operator":null,"country":"US","launch_date":"2026-04-30","launch_site_code":"FRGUI","launch_vehicle":null,"mission":null,"orbit_class":"UNKNOWN","rcs_meters":null,"size_class":null,"mass_kg":null,"dimensions":null,"purposes":[],"wikipedia_slug":null,"has_3d_model":false,"image_url":null,"decayed_at":null,"tle_current":{"epoch":"2026-05-25T02:53:57.475968Z","epoch_age_seconds":57902,"freshness":"FRESH","line1":"1 68943U 26098AA  26145.12080412  .00030634  00000+0  91681-3 0  9994","line2":"2 68943  51.8767 178.9199 0010371  66.8777 293.3301 15.34232092  3806","mean_motion":15.34232092,"eccentricity":0.0010371,"inclination_deg":51.8767,"raan_deg":178.9199,"arg_perigee_deg":66.8777,"mean_anomaly_deg":293.3301,"bstar":0.00091681,"rev_number":380,"period_min":93.858028880288,"perigee_km":456.10719064876,"apogee_km":470.29749671542,"semimajor_km":6841.3393436821,"source":"CELESTRAK","updated_at":"2026-05-25T13:38:08.797747Z"}}}